Regional Weather Roundup
Issued by NWS

Home | Current Version | Previous Version | Text Only | Print | Product List | Glossary On
Versions: 1 2 3 4 5 6 7 8 9 10 11 12 13 14 15 16 17 18 19 20 21 22 23 24 25 26 27 28 29 30 31 32 33 34 35 36 37 38 39 40 41 42 43 44 45 46 47 48 49 50
000
ASUS45 KABQ 291410
RWRNM
NEW MEXICO REGIONAL WEATHER ROUNDUP
NATIONAL WEATHER SERVICE ALBUQUERQUE NM
800 AM MDT SAT APR 29 2017

NOTE: "FAIR" MEANS FEW OR NO CLOUDS BELOW 12,000 FEET AGL WITH NO
       SIGNIFICANT WEATHER OR OBSTRUCTIONS TO VISION.

      THIS PRODUCT IS RELEASED AS TWO VERSIONS.  ONE VERSION NEAR
      THE TOP OF THE HOUR CONTAINING PRELIMINARY DATA FROM ALBUQUERQUE
      AND OTHER STATIONS.  A FINAL VERSION WITH ADDITIONAL DATA IS
      ISSUED ABOUT 10 MINUTES AFTER THE HOUR.

NMZ501-503-504-510>518-291500-
NORTHWEST PLATEAU/NORTHCENTRAL MOUNTAINS

CITY           SKY/WX    TMP DP  RH WIND       PRES   REMARKS
FARMINGTON     FAIR      35  31  85 CALM      29.87R
LOS ALAMOS     HVY SNOW  29  29 100 CALM      29.86R VSB 1/4
SANTA FE       SNOW      31  31 100 SW5       29.86R VSB 1/4 WCI  26
TAOS             N/A     30  19  64 N12G17    29.84R WCI  21
ANGEL FIRE     LGT SNOW  22  16  78 N21G32    29.90F WCI   6

$$
NMZ402-403-502-505>509-291500-
WESTCENTRAL MOUNTAINS/SOUTHWEST MOUNTAINS

CITY           SKY/WX    TMP DP  RH WIND       PRES   REMARKS
GALLUP         CLOUDY    30  22  72 SW3       29.91R
GRANTS         FAIR      28  26  93 NW14      29.90R WCI  17
SILVER CITY    FAIR      42  24  47 NW14      29.86R

$$
NMZ407-409-411-412-291500-
SOUTHERN DESERTS

CITY           SKY/WX    TMP DP  RH WIND       PRES   REMARKS
DEMING         CLOUDY    50  26  39 NW12      29.83R
LAS CRUCES     CLOUDY    46  37  69 S7        29.83S
HOLLOMAN AFB   FAIR      44  42  91 SE8       29.85S
ALAMOGORDO     PTSUNNY   45  41  87 SE9       29.83F
T OR C         FAIR      44  32  62 NW12G18   29.84R

$$
NMZ519>523-291500-
CENTRAL VALLEYS/CENTRAL HIGHLANDS

CITY           SKY/WX    TMP DP  RH WIND       PRES   REMARKS
ALBUQUERQUE    LGT RAIN  35  34  96 E7        29.89R FOG     WCI  29
DOUBLE EAGLE   PTSUNNY   36  30  80 N9        29.87R WCI  29
MORIARTY ARPT  CLOUDY    34  30  84 N6        29.90R WCI  29
CLINES CORNERS LGT SNOW  26  23  88 NE26G36   29.87R FOG     WCI  10
BELEN          CLOUDY    37  34  90 NE8       29.88R WCI  30
SOCORRO        CLOUDY    39  35  85 N6        29.86R

$$
NMZ524>526-539-540-291500-
SOUTHCENTRAL MOUNTAINS

CITY           SKY/WX    TMP DP  RH WIND       PRES   REMARKS
RUIDOSO        LGT RAIN  32  32 100 S7        29.86S WCI  26

$$
NMZ527>531-291500-
NORTHEAST HIGHLANDS/NORTHEAST PLAINS

CITY           SKY/WX    TMP DP  RH WIND       PRES   REMARKS
LAS VEGAS      LGT SNOW  26  24  92 N24G31    29.89S VSB 1   WCI  11
RATON          LGT SNOW  29  20  69 N28G36    29.93R WCI  14
CLAYTON        FOG       29  29 100 N24       29.99R VSB 1/4 WCI  15

$$
NMZ532>537-291500-
EASTCENTRAL PLAINS

CITY           SKY/WX    TMP DP  RH WIND       PRES   REMARKS
SANTA ROSA     LGT SNOW  32  32 100 NE23G37   29.89R VSB 3/4 WCI  19
TUCUMCARI      SNOW      34  33  96 N16       29.95R VSB 1/2 WCI  24
CANNON AFB     LGT SNOW  32  32 100 N28G36    29.89S FOG     WCI  18
CLOVIS AIRPORT CLOUDY    34  27  75 N26G32    29.91R WCI  21

$$
NMZ028-029-538-291500-
SOUTHEAST PLAINS

CITY           SKY/WX    TMP DP  RH WIND       PRES   REMARKS
ROSWELL        LGT RAIN  45  41  86 NE17      29.89R
ARTESIA        CLOUDY    45  45 100 N18G25    29.85F
CARLSBAD       CLOUDY    48  43  82 N21G28    29.83R
HOBBS          CLOUDY    48  39  71 N22G29    29.81R


$$




USA.gov is the U.S. government's official web portal to all federal, state and local government web resources and services.